DateTimeUTC,F1_A11,F1_S11,BsB_S11,BsG_S11,BsR_S11,BbsB_S11,BbsG_S11,BbsR_S11,BaB_A11,BaG_A11,BaR_A11,Tu_S11,T_S11,Uu_S11,U_S11,P_S11,T1_A11
2021-09-17T01:00:00Z,00000200,21000000,,,,,,,-000.13,0000.02,-000.21,17.9,25.3,,00.0,0659.0,31.0
2021-09-17T01:01:00Z,00000200,21000000,,,,,,,-000.02,-000.49,-000.25,17.9,25.3,,00.0,0659.0,31.0
2021-09-17T01:02:00Z,00000200,21000000,,,,,,,-000.14,-000.21,0000.13,17.9,25.4,,00.0,0659.0,31.0
2021-09-17T01:03:00Z,00000200,61000000,,,,,,,-000.49,-000.11,-000.32,17.9,25.4,,00.0,0659.0,31.0
2021-09-17T01:04:00Z,00000200,41000000,0000.45,0000.33,0000.06,-000.50,0000.21,0000.09,0000.28,0000.12,-000.09,17.9,25.1,,00.0,0659.8,31.0
2021-09-17T01:05:00Z,00000200,01000000,0000.98,0000.16,0000.19,-000.00,0000.22,0000.06,0000.22,0000.18,0000.32,17.9,25.0,,00.0,0659.9,31.0
2021-09-17T01:06:00Z,00000200,01000000,0000.71,0000.58,-000.16,-000.08,-000.15,0000.07,-000.02,0000.15,0000.15,17.8,24.9,,00.0,0659.9,30.9
2021-09-17T01:07:00Z,00000200,01000000,0000.90,0000.56,0000.38,0000.65,0000.19,-000.22,0000.30,-000.23,0000.29,17.7,24.8,,00.0,0659.9,30.9
2021-09-17T01:08:00Z,00000200,01000000,0000.63,0000.37,0000.48,0000.47,0000.22,-000.07,-000.10,-000.28,-000.42,17.6,24.8,,00.0,0659.9,30.9
2021-09-17T01:09:00Z,00000200,01000000,0000.66,0000.44,0000.54,-000.08,0000.06,-000.08,-000.11,0000.65,0000.26,17.6,24.7,,00.0,0659.9,30.9
2021-09-17T01:10:00Z,00000200,01000000,0000.42,0000.50,0000.58,0000.04,0000.40,0000.26,0000.12,-000.04,0000.14,17.6,24.7,,00.0,0659.9,30.9
2021-09-17T01:11:00Z,00000200,01000000,0000.95,0000.54,0000.42,0000.67,0000.20,0000.26,0000.58,0000.87,0000.18,17.6,24.7,,00.0,0659.9,30.9
2021-09-17T01:12:00Z,00000200,01000000,0001.23,0000.38,0000.49,0000.07,0000.18,0000.18,0000.33,-000.17,0000.25,17.7,24.7,,00.0,0659.8,31.0
2021-09-17T01:13:00Z,00000200,01000000,0001.13,0000.32,-000.11,0000.50,0000.23,-000.10,0000.22,-000.24,0000.41,17.8,24.8,,00.0,0659.9,31.0
2021-09-17T01:14:00Z,00000200,01000000,0000.43,0000.26,0000.42,0000.38,-000.12,-000.08,0000.28,0000.89,0000.06,17.9,24.8,,00.0,0659.9,31.0
2021-09-17T01:15:00Z,00000200,01000000,0000.95,0000.42,0000.07,0000.79,0000.20,0000.12,-000.07,-000.20,-000.22,18.0,24.9,,00.0,0659.9,31.0
2021-09-17T01:16:00Z,00000200,01000000,0000.61,0000.56,-000.08,0000.24,0000.20,0000.02,-000.14,0000.15,0000.10,18.1,24.9,,00.0,0659.9,31.0
2021-09-17T01:17:00Z,00000200,01000000,0000.33,0000.34,0000.36,0000.18,0000.06,0000.21,0000.28,-000.30,0000.18,18.2,25.0,,00.0,0659.9,31.0
2021-09-17T01:18:00Z,00000200,01000000,0000.88,0000.68,0000.28,-000.02,-000.02,-000.00,-000.09,-000.01,0000.17,18.2,25.0,,00.0,0659.9,31.0
2021-09-17T01:19:00Z,00000200,01000000,0000.73,0001.14,0000.53,0000.97,-000.16,0000.40,-000.63,-000.13,-000.79,18.1,25.0,,00.0,0659.9,31.0
2021-09-17T01:20:00Z,00000200,01000000,0002.09,0000.77,0000.31,0000.15,0000.22,0000.38,0000.07,-000.18,-000.02,18.0,24.9,,00.0,0659.9,31.0
2021-09-17T01:21:00Z,00000200,01000000,0001.31,0000.42,0000.17,0000.19,0000.00,-000.20,0000.45,0000.21,0000.34,17.9,24.9,,00.0,0659.9,31.0
2021-09-17T01:22:00Z,00000200,01000000,0001.37,0000.74,0000.01,0000.52,0000.20,-000.19,0000.37,0000.34,0000.42,17.9,24.8,,00.0,0659.8,31.0
2021-09-17T01:23:00Z,00000200,01000000,0000.80,0000.44,-000.08,0000.68,0000.01,-000.04,0000.48,0000.36,-000.16,17.8,24.8,,00.0,0659.8,30.9
2021-09-17T01:24:00Z,00000200,01000000,0000.56,0000.21,-000.18,0000.20,0000.10,-000.01,0000.66,0000.26,0000.85,17.7,24.7,,00.0,0659.8,30.9
2021-09-17T01:25:00Z,00000200,01000000,0000.55,0000.23,0000.01,0000.08,-000.05,-000.37,-000.17,0000.25,-000.25,17.7,24.7,,00.0,0659.8,30.9
2021-09-17T01:26:00Z,00000200,01000000,0000.14,0000.01,0000.11,0000.99,0000.14,0000.07,0000.33,0000.39,0000.40,17.8,24.7,,00.0,0659.8,30.9
2021-09-17T01:27:00Z,00000200,01000000,0000.27,0000.15,-000.03,0000.09,0000.30,-000.03,0000.19,0000.42,0000.28,17.9,24.8,,00.0,0659.8,31.0
2021-09-17T01:28:00Z,00000200,01000000,0000.30,-000.17,-000.12,0000.33,0000.07,-000.01,0000.32,0000.32,-000.01,17.9,24.8,,00.0,0659.8,31.0
2021-09-17T01:29:00Z,00000200,01000000,-000.22,0000.16,0000.26,0000.20,0000.11,0000.36,0000.28,0000.17,0000.61,18.0,24.8,,00.0,0659.8,31.0
2021-09-17T01:30:00Z,00000200,01000000,-000.28,0000.07,0000.01,0000.02,-000.11,-000.01,0001.07,0000.75,0000.48,18.1,24.9,,00.0,0659.8,31.0
2021-09-17T01:31:00Z,00000200,01000000,0000.45,0000.07,-000.12,0000.53,-000.10,0000.15,0000.04,-000.02,-000.23,18.2,24.9,,00.0,0659.8,31.0
2021-09-17T01:32:00Z,00000200,01000000,0000.55,-000.12,0000.23,0000.43,-000.00,0000.11,0000.21,0000.29,0000.34,18.2,25.0,,00.0,0659.8,31.0
2021-09-17T01:33:00Z,00000200,01000000,-000.58,0000.08,-000.00,-000.03,-000.07,-000.10,0000.05,-000.00,0000.10,18.1,24.9,,00.0,0659.8,31.0
2021-09-17T01:34:00Z,00000200,01000000,-000.30,-000.02,0000.13,0000.73,-000.15,0000.04,0000.14,0000.04,0000.30,18.1,24.9,,00.0,0659.8,31.0
2021-09-17T01:35:00Z,00000200,01000000,-000.00,0000.25,-000.34,0000.11,0000.16,-000.03,-000.15,0000.07,-000.43,18.0,24.9,,00.0,0659.8,31.0
2021-09-17T01:36:00Z,00000200,01000000,0000.02,0000.05,-000.09,0000.41,0000.14,0000.39,-000.09,-000.18,0000.14,17.9,24.8,,00.0,0659.7,30.9
2021-09-17T01:37:00Z,00000200,01000000,-000.05,-000.11,0000.13,-000.02,0000.04,-000.07,-000.04,-000.07,-000.16,17.8,24.8,,00.0,0659.7,30.9
2021-09-17T01:38:00Z,00000200,01000000,-000.11,-000.56,0000.08,0000.14,0000.11,0000.00,0000.19,0000.12,-000.09,17.7,24.7,,00.0,0659.8,30.9
2021-09-17T01:39:00Z,00000200,01000000,-000.16,0000.08,-000.12,-000.35,0000.21,0000.10,0000.02,0000.22,0000.18,17.7,24.6,,00.0,0659.7,30.9
2021-09-17T01:40:00Z,00000200,01000000,0000.63,0000.39,-000.19,-000.25,0000.06,0000.03,0000.01,0000.13,0000.11,17.7,24.6,,00.0,0659.7,30.9
2021-09-17T01:41:00Z,00000200,01000000,-000.49,0000.02,0000.06,0000.46,-000.15,-000.19,0000.28,0000.11,-000.14,17.7,24.7,,00.0,0659.7,30.9
2021-09-17T01:42:00Z,00000200,01000000,-000.03,0000.18,0000.23,0000.37,-000.20,0000.24,0000.19,0000.39,0000.52,17.8,24.7,,00.0,0659.7,31.0
2021-09-17T01:43:00Z,00000200,01000000,-000.20,-000.28,-000.11,0000.04,-000.17,0000.11,0000.38,0000.20,0000.26,17.9,24.7,,00.0,0659.7,31.0
2021-09-17T01:44:00Z,00000200,01000000,-000.34,0000.04,-000.03,0000.32,-000.02,0000.28,-000.62,-000.49,-000.25,18.0,24.8,,00.0,0659.7,31.0
2021-09-17T01:45:00Z,00000200,01000000,0000.25,0000.31,-000.11,0000.43,0000.06,-000.10,-000.91,-000.82,-000.68,18.1,24.8,,00.0,0659.8,31.0
2021-09-17T01:46:00Z,00000200,01000000,-000.33,0000.17,-000.39,0000.31,0000.06,-000.21,0000.24,-000.13,-000.03,18.2,24.9,,00.0,0659.8,31.0
2021-09-17T01:47:00Z,00000200,01000000,-000.27,-000.05,-000.07,0000.67,-000.08,0000.41,0000.31,0000.24,-000.10,18.2,24.9,,00.0,0659.8,31.0
2021-09-17T01:48:00Z,00000200,01000000,0001.19,0000.50,0000.25,0000.38,-000.12,0000.39,-000.62,-000.54,0000.03,18.3,25.0,,00.0,0659.8,31.0
2021-09-17T01:49:00Z,00000200,01000000,0000.42,-000.23,0000.20,0000.19,0000.03,0000.21,-001.11,-000.81,-000.73,18.3,25.0,,00.0,0659.8,31.0
2021-09-17T01:50:00Z,00000200,01000000,0000.28,0000.13,0000.19,0000.57,0000.03,0000.11,-000.36,-000.34,-000.45,18.3,25.0,,00.0,0659.8,31.0
2021-09-17T01:51:00Z,00000200,01000000,0000.60,-000.07,0000.03,0000.20,0000.62,-000.11,0000.02,-000.11,-000.12,18.3,25.0,,00.0,0659.8,31.0
2021-09-17T01:52:00Z,00000200,01000000,-000.34,-000.08,-000.02,-000.20,0000.16,-000.07,0000.08,0000.33,0000.22,18.2,24.9,,00.0,0659.8,31.0
2021-09-17T01:53:00Z,00000200,01000000,0000.67,0000.16,0000.38,0000.26,0000.12,0000.68,-000.34,-000.48,-000.40,18.1,24.8,,00.0,0659.8,31.0
2021-09-17T01:54:00Z,00000200,01000000,0000.47,0000.26,0000.18,0000.24,-000.10,0000.17,-000.10,-000.23,-000.17,18.0,24.8,,00.0,0659.8,31.0
2021-09-17T01:55:00Z,00000200,01000000,0000.27,0000.40,0000.13,0000.48,-000.07,-000.06,0000.44,0000.49,0000.16,18.0,24.8,,00.0,0659.8,31.0
2021-09-17T01:56:00Z,00000200,01000000,0000.59,0000.21,0000.35,0000.37,-000.08,-000.04,-000.33,-000.07,0000.56,18.0,24.8,,00.0,0659.8,31.0
2021-09-17T01:57:00Z,00000200,41000000,,,,,,,0000.99,0000.97,0000.31,18.1,24.8,,00.0,0659.8,31.0
2021-09-17T01:58:00Z,00000200,61000000,,,,,,,0000.05,-000.51,-000.32,17.8,25.0,,00.0,0658.8,31.0
2021-09-17T01:59:00Z,00000200,21000000,,,,,,,-000.61,-000.22,-000.01,17.8,25.1,,00.0,0658.8,31.0
